Total_Precipitation_Accumulation
1.60 1.79 1.78 1.71 1.76 1.83 2.01 2.15 2.27 2.14 1.99 1.81 1.50 1.40 1.47 1.52 1.66 1.50 1.49 1.35 1.08 0.97 0.95 0.93 0.92 0.98 1.11 1.32 1.50 1.65 1.87 2.05 2.19 2.34 2.45 2.62 2.77 2.91
1.82 1.99 1.93 1.83 1.85 1.89 2.04 2.24 2.45 2.46 2.13 1.70 1.56 1.55 1.65 1.58 1.72 1.50 1.47 1.53 1.28 1.07 0.96 0.96 0.96 0.98 1.02 1.17 1.33 1.48 1.62 1.74 1.88 2.02 2.11 2.17 2.24 2.39
1.74 1.89 1.94 1.98 1.97 1.97 2.12 2.24 2.47 2.69 2.42 1.94 1.82 1.84 1.96 1.94 1.83 1.61 1.43 1.36 1.21 1.15 1.00 0.94 0.93 0.96 1.02 1.08 1.23 1.37 1.45 1.54 1.69 1.84 1.97 2.07 2.09 2.11
1.80 1.90 1.81 1.94 2.07 2.03 2.17 2.21 2.31 2.59 2.49 2.24 2.17 2.15 2.14 2.04 2.00 1.79 1.48 1.33 1.26 1.22 1.02 0.93 0.92 0.93 0.97 1.00 1.10 1.25 1.38 1.45 1.49 1.53 1.60 1.74 1.93 2.07
1.79 1.79 1.75 1.94 1.96 2.05 2.16 2.12 2.11 2.26 2.42 2.33 2.28 2.36 2.33 2.19 2.09 1.91 1.73 1.65 1.37 1.29 1.20 1.11 1.09 1.08 1.07 1.06 1.07 1.15 1.26 1.39 1.49 1.57 1.63 1.71 1.77 1.85
1.81 1.76 1.76 1.80 1.83 1.90 2.01 2.08 2.13 2.23 2.34 2.35 2.40 2.54 2.52 2.54 2.46 2.19 2.07 2.02 1.73 1.39 1.38 1.29 1.21 1.13 1.06 0.99 0.97 1.02 1.12 1.30 1.47 1.55 1.60 1.68 1.73 1.72
1.89 1.81 1.71 1.72 1.75 1.78 1.73 1.82 1.93 2.06 2.08 2.14 2.20 2.42 2.50 2.61 2.56 2.36 2.23 2.23 2.07 1.68 1.53 1.42 1.37 1.26 1.21 1.16 1.05 0.99 1.03 1.15 1.33 1.47 1.53 1.60 1.68 1.70
1.97 1.92 1.77 1.66 1.62 1.55 1.44 1.46 1.54 1.64 1.81 2.02 2.07 2.25 2.44 2.57 2.69 2.73 2.59 2.43 2.29 2.02 1.90 1.75 1.52 1.45 1.30 1.17 1.14 0.97 0.87 0.92 1.01 1.14 1.28 1.42 1.54 1.68
1.86 1.85 1.64 1.49 1.57 1.51 1.53 1.48 1.45 1.53 1.63 1.86 2.01 2.05 2.24 2.43 2.64 2.79 2.79 2.69 2.49 2.32 2.19 2.03 1.69 1.50 1.32 1.21 1.14 0.91 0.78 0.73 0.76 0.83 0.92 1.06 1.18 1.31
1.70 1.74 1.71 1.63 1.63 1.67 1.59 1.48 1.39 1.45 1.54 1.51 1.54 1.67 1.91 2.26 2.45 2.48 2.60 2.60 2.46 2.31 2.25 2.20 1.95 1.75 1.55 1.41 1.31 1.03 0.87 0.78 0.74 0.72 0.75 0.81 0.93 1.04
1.55 1.57 1.59 1.53 1.59 1.48 1.39 1.38 1.37 1.40 1.38 1.36 1.32 1.36 1.49 1.70 2.04 2.19 2.26 2.22 2.12 1.88 1.77 1.85 1.82 1.79 1.73 1.59 1.41 1.23 1.03 0.90 0.84 0.82 0.82 0.82 0.88 0.97
1.53 1.51 1.45 1.32 1.27 1.22 1.20 1.31 1.30 1.29 1.34 1.28 1.20 1.14 1.11 1.26 1.56 1.74 1.82 1.85 1.76 1.70 1.45 1.43 1.46 1.52 1.65 1.53 1.37 1.29 1.21 1.18 1.08 0.96 0.90 0.89 0.99 0.96
1.51 1.51 1.40 1.31 1.13 1.09 1.09 1.13 1.17 1.16 1.24 1.27 1.23 1.19 1.20 1.20 1.25 1.39 1.59 1.71 1.67 1.48 1.35 1.37 1.39 1.41 1.43 1.40 1.34 1.26 1.26 1.30 1.27 1.23 1.17 1.15 1.20 1.17
1.50 1.47 1.46 1.32 1.11 1.04 0.98 0.97 0.99 0.93 0.96 1.08 1.06 1.02 1.04 1.04 1.07 1.21 1.41 1.54 1.62 1.47 1.35 1.40 1.43 1.37 1.33 1.22 1.15 1.08 1.07 1.20 1.35 1.46 1.43 1.44 1.43 1.49
1.37 1.41 1.35 1.20 1.00 0.87 0.86 0.84 0.78 0.76 0.85 0.95 0.96 0.89 0.86 0.91 1.00 1.15 1.29 1.43 1.47 1.40 1.28 1.29 1.33 1.31 1.29 1.18 1.03 0.96 0.96 1.01 1.10 1.29 1.49 1.59 1.58 1.60
1.32 1.29 1.17 1.10 0.96 0.87 0.87 0.80 0.73 0.80 0.89 0.91 0.95 0.95 0.92 0.94 0.97 1.03 1.14 1.26 1.32 1.25 1.17 1.16 1.24 1.33 1.26 1.11 1.07 0.98 0.93 0.94 0.91 1.02 1.31 1.60 1.81 1.90
1.49 1.42 1.31 1.20 1.06 0.96 0.95 0.97 0.98 1.04 1.03 1.01 1.05 1.10 1.07 1.00 0.97 1.00 1.14 1.18 1.14 1.08 1.07 1.10 1.17 1.31 1.30 1.16 1.08 0.99 0.98 0.93 0.87 0.92 1.09 1.27 1.50 1.74
1.38 1.32 1.27 1.19 1.11 1.10 1.14 1.16 1.14 1.15 1.12 1.13 1.14 1.17 1.17 1.09 1.00 0.99 1.09 1.15 1.10 1.04 1.02 1.04 1.19 1.37 1.40 1.26 0.95 0.85 0.87 0.87 0.89 1.02 1.11 1.09 1.14 1.25
1.31 1.31 1.28 1.25 1.18 1.16 1.19 1.19 1.15 1.14 1.18 1.19 1.19 1.20 1.24 1.24 1.20 1.14 1.12 1.17 1.15 1.11 1.06 1.08 1.17 1.24 1.20 1.05 0.90 0.71 0.74 0.81 0.92 1.02 1.11 1.06 0.98 1.02
1.22 1.27 1.26 1.24 1.21 1.18 1.14 1.15 1.15 1.17 1.17 1.16 1.19 1.22 1.28 1.30 1.31 1.24 1.16 1.13 1.16 1.19 1.17 1.13 1.07 1.04 1.03 0.98 0.92 0.86 0.75 0.84 0.94 0.99 1.03 1.05 1.02 0.98
1.17 1.16 1.13 1.09 1.06 1.06 1.05 1.03 1.02 1.03 1.06 1.12 1.13 1.14 1.20 1.18 1.14 1.11 1.12 1.12 1.13 1.20 1.13 0.97 0.92 1.00 1.18 1.34 1.18 0.93 0.87 0.86 0.96 1.03 1.10 1.19 1.18 1.18
1.07 1.03 1.03 1.00 1.00 1.00 1.01 0.99 0.98 0.99 1.04 1.13 1.14 1.13 1.15 1.13 1.08 1.07 1.13 1.15 1.13 1.13 1.15 1.14 1.22 1.31 1.36 1.33 1.15 0.99 1.02 1.10 1.11 1.11 1.11 1.07 1.07 1.04
0.98 0.95 0.93 0.89 0.88 0.89 0.91 0.93 0.97 1.02 1.05 1.09 1.13 1.16 1.19 1.17 1.13 1.13 1.17 1.21 1.21 1.24 1.37 1.41 1.36 1.33 1.27 1.27 1.24 1.17 1.16 1.29 1.38 1.38 1.28 1.09 0.83 0.68